[[{"header":{"parameterUnit":"m.s-1","parameterCategory":2,"la1":30.2991,"la2":30.254,"lo1":-89.0895,"lo2":-89.0444,"dy":0.0017,"dx":0.0017,"nx":28,"ny":28,"refTime":"2026-02-06T09:00:00:Z","depth":"0","parameterNumber":2,"parameterNumberName":"U-component_of_CURRENTS"},"data":[0,0,0,0,0,0,0,0,0,0,0,0,0,0,0,0,0,0,0,0,0,0,0,0,0,0,0,0,0,0,0,0,0,0,0,0,0,0,0,0,0,0,0,0,0,0,0,0,0,0,0,0,0,0,0,0,0,0,0.1845,0.1846,0,0.1913,0.1914,0.1915,0.2003,0.2004,0.2005,0.2007,0.203,0.2029,0.2028,0,0,0,0,0,0,0,0,0,0,0,0,0,0.1833,0.1832,0.1845,0.1846,0.1847,0.1913,0.1914,0.1915,0.2002,0.2004,0.2006,0.2007,0.203,0.2029,0.2028,0,0,0,0,0,0,0,0,0,0,0,0,0,0.1864,0.1832,0.1845,0.1897,0.1902,0.1913,0.1914,0.1916,0.2002,0.2004,0.2006,0.2008,0.203,0.2029,0.2028,0.1984,0,0,0.2026,0.2025,0,0,0,0,0,0,0,0,0.1862,0.1865,0.1889,0.1894,0.19,0.195,0.1918,0.1936,0.2002,0.1966,0.2007,0.2009,0.1996,0.1998,0.201,0.1985,0.1986,0.2025,0.2025,0.2025,0.2024,0,0,0,0,0,0,0,0.186,0.1863,0.1874,0.1889,0.1896,0.1932,0.1938,0.1923,0.197,0.1969,0.1975,0.198,0.2,0.201,0.2011,0.1986,0.2025,0.2025,0.2024,0.2024,0.2001,0.2001,0,0,0,0,0,0,0.1844,0.186,0.1871,0.1876,0.1884,0.193,0.1937,0.1933,0.1971,0.1979,0.1978,0.1984,0.2011,0.2012,0.2012,0.2052,0.2025,0.2024,0.2023,0.2001,0.2001,0.2001,0,0,0,0,0,0,0.1843,0.1844,0.1869,0.1869,0.1875,0.1928,0.1923,0.1933,0.1947,0.1978,0.1986,0.1982,0.2012,0.2013,0.2,0.205,0.2023,0.2022,0.2001,0.2001,0.2001,0.2073,0,0,0,0,0,0,0.1843,0.1843,0.1832,0.1867,0.1874,0.1877,0.1921,0.1933,0.1947,0.1955,0.1983,0.1988,0.2014,0.2001,0.1999,0.2048,0.2022,0.2001,0.2001,0.2001,0.2071,0.2075,0.2079,0,0,0,0,0,0.1842,0.1827,0.1831,0.1833,0.1858,0.1876,0.1883,0.1929,0.1944,0.1948,0.1964,0.1987,0.2,0.1999,0.1997,0.2047,0.2001,0.2001,0.2001,0.2069,0.2075,0.2079,0,0,0,0,0,0,0.1814,0.1835,0.1841,0.1831,0.1849,0.1891,0.1898,0.1916,0.1931,0.1937,0.1964,0.1969,0.1988,0.198,0.1978,0.2036,0.2012,0.2011,0.2065,0.207,0.2074,0.2168,0.2021,0,0,0,0,0,0.1797,0.1796,0.1817,0.1808,0.1816,0.1848,0.1859,0.1885,0.1904,0.1915,0.193,0.1949,0.1983,0.1993,0.2004,0.201,0.2062,0.2044,0.2048,0.2052,0.2124,0.2231,0.2255,0.2,0.2,0.2,0,0,0.1787,0.1794,0.1795,0.1802,0.1822,0.1844,0.1861,0.1875,0.1906,0.1908,0.1937,0.1952,0.1982,0.2018,0.2027,0.202,0.2136,0.2052,0.2056,0.2128,0.2234,0.226,0.2283,0.2,0.2,0.2,0,0,0.1774,0.1766,0.1769,0.1782,0.1801,0.1828,0.1826,0.1854,0.1883,0.1889,0.193,0.1986,0.1971,0.2061,0.2092,0.2116,0.215,0.2087,0.22,0.23,0.2325,0.2347,0.2392,0.2418,0.2097,0.2097,0.2097,0,0.1763,0.1765,0.1771,0.1782,0.1801,0.182,0.1839,0.1868,0.1889,0.1935,0.1902,0.2008,0.2025,0.2158,0.219,0.2142,0.2172,0.2182,0.2314,0.2338,0.2359,0.2402,0.243,0.21,0.21,0.21,0.2099,0,0.1764,0.1767,0.1769,0.1796,0.1812,0.1826,0.1867,0.1897,0.1917,0.1966,0.2062,0.2099,0.2187,0.2194,0.221,0.2379,0.2337,0.2305,0.2318,0.2391,0.2427,0.2455,0.2105,0.2104,0.2103,0.2102,0,0,0.1752,0.1769,0.1771,0.18,0.1822,0.1851,0.1901,0.1984,0.2052,0.2093,0.2192,0.2305,0.2349,0.2393,0.242,0.2533,0.2694,0.2498,0.2501,0.2575,0.2884,0.2797,0.2818,0.2678,0.2684,0.269,0.2829,0,0.176,0.178,0.1789,0.1839,0.1863,0.1908,0.1957,0.2037,0.209,0.2178,0.2296,0.2371,0.2411,0.2447,0.2586,0.265,0.278,0.2659,0.2779,0.2783,0.2725,0.2854,0.2704,0.2814,0.2857,0.2862,0.2865,0,0.1766,0.1785,0.181,0.1885,0.1902,0.1935,0.2051,0.2102,0.2237,0.2274,0.2415,0.2462,0.2661,0.2638,0.2901,0.281,0.2896,0.2951,0.2955,0.2896,0.2753,0.2756,0.2863,0.2725,0.2908,0.2905,0.2901,0,0.1769,0.1816,0.1841,0.1858,0.1928,0.1976,0.2033,0.2144,0.2197,0.2342,0.2376,0.2594,0.2664,0.2848,0.2977,0.2944,0.3219,0.3161,0.3183,0.3173,0.309,0.3063,0.3123,0.3402,0.3401,0.3401,0.3401,0,0.1778,0.181,0.1849,0.1867,0.1941,0.1986,0.2067,0.2156,0.2244,0.231,0.2433,0.2512,0.2726,0.2877,0.3015,0.3185,0.3256,0.3274,0.3245,0.3096,0.307,0.2978,0.2907,0.3406,0.3405,0.3404,0.3403,0,0.1778,0.1785,0.1842,0.1913,0.1933,0.1998,0.2064,0.2109,0.2196,0.2275,0.2311,0.2482,0.2667,0.2856,0.3114,0.3197,0.3271,0.3415,0.3199,0.3145,0.301,0.2946,0.2996,0.2922,0.3473,0.3472,0.3471,0,0.1779,0.1793,0.1867,0.1881,0.191,0.1976,0.1989,0.2081,0.2106,0.2252,0.2277,0.2466,0.2579,0.29,0.3096,0.3317,0.3241,0.329,0.3244,0.305,0.2959,0.2863,0.279,0.3133,0.3129,0.3127,0.3125,0,0.1811,0.1826,0.1875,0.187,0.189,0.1912,0.1943,0.1961,0.2048,0.2108,0.2209,0.2311,0.2585,0.2746,0.3007,0.3137,0.3079,0.324,0.3127,0.2811,0.2632,0.2524,0.2943,0.3101,0.3103,0.3105,0.3106,0.3107,0.1852,0.1872,0.1884,0.1882,0.1874,0.1832,0.1818,0.185,0.1893,0.1966,0.2107,0.2207,0.2405,0.2754,0.285,0.2881,0.2945,0.2846,0.2817,0.2763,0.2612,0.296,0.302,0.3021,0.3023,0.3024,0.3026,0,0.189,0.1875,0.1872,0.1842,0.1759,0.177,0.175,0.1707,0.1719,0.1853,0.1937,0.2067,0.2211,0.2372,0.2509,0.2461,0.2414,0.2409,0.2241,0.222,0.2609,0.2507,0.2351,0.2351,0.2351,0.2351,0.2351,0.2351,0.1918,0.1898,0.1853,0.1716,0.1654,0.1515,0.1477,0.1475,0.1532,0.1603,0.1669,0.1787,0.1945,0.2067,0.2043,0.2037,0.1898,0.185,0.1877,0.2108,0.2145,0.218,0.2069,0.1823,0.1823,0.1404,0.14,0.1398]},{"header":{"parameterUnit":"m.s-1","parameterCategory":2,"la1":30.2991,"la2":30.254,"lo1":-89.0895,"lo2":-89.0444,"dy":0.0017,"dx":0.0017,"nx":28,"ny":28,"refTime":"2026-02-06T09:00:00:Z","depth":"0","parameterNumber":3,"parameterNumberName":"V-component_of_CURRENTS"},"data":[0,0,0,0,0,0,0,0,0,0,0,0,0,0,0,0,0,0,0,0,0,0,0,0,0,0,0,0,0,0,0,0,0,0,0,0,0,0,0,0,0,0,0,0,0,0,0,0,0,0,0,0,0,0,0,0,0,0,-0.0401,-0.0402,0,-0.0545,-0.0547,-0.0549,-0.0682,-0.0683,-0.0684,-0.0685,-0.0817,-0.082,-0.0822,0,0,0,0,0,0,0,0,0,0,0,0,0,-0.0341,-0.0341,-0.0401,-0.0402,-0.0404,-0.0545,-0.0547,-0.055,-0.0681,-0.0683,-0.0684,-0.0686,-0.0817,-0.0819,-0.0822,0,0,0,0,0,0,0,0,0,0,0,0,0,-0.0418,-0.0341,-0.0401,-0.0483,-0.0492,-0.0544,-0.0547,-0.055,-0.0681,-0.0683,-0.0685,-0.0686,-0.0816,-0.0819,-0.0823,-0.0808,0,0,-0.0834,-0.0835,0,0,0,0,0,0,0,0,-0.0413,-0.042,-0.047,-0.0478,-0.0487,-0.0594,-0.0575,-0.0635,-0.0681,-0.0614,-0.0685,-0.0687,-0.0737,-0.0747,-0.0777,-0.0815,-0.082,-0.0834,-0.0836,-0.0838,-0.0839,0,0,0,0,0,0,0,-0.0407,-0.0415,-0.0462,-0.0471,-0.0482,-0.0547,-0.056,-0.0587,-0.0666,-0.062,-0.0629,-0.0637,-0.0743,-0.0773,-0.0781,-0.0822,-0.0834,-0.0837,-0.0839,-0.0841,-0.0829,-0.0827,0,0,0,0,0,0,-0.0373,-0.0409,-0.0458,-0.0466,-0.0449,-0.0546,-0.0561,-0.0561,-0.0667,-0.0684,-0.0635,-0.0643,-0.0766,-0.0776,-0.0786,-0.0709,-0.0838,-0.0841,-0.0843,-0.0832,-0.0829,-0.0826,0,0,0,0,0,0,-0.0371,-0.0376,-0.0452,-0.0439,-0.0452,-0.0544,-0.0545,-0.0563,-0.0593,-0.0678,-0.0696,-0.0646,-0.0768,-0.0781,-0.0814,-0.0717,-0.0843,-0.0846,-0.0835,-0.0831,-0.0827,-0.0597,0,0,0,0,0,0,-0.0369,-0.0374,-0.0361,-0.0436,-0.0452,-0.0476,-0.0543,-0.0564,-0.0593,-0.0604,-0.0692,-0.0707,-0.077,-0.0808,-0.0818,-0.0725,-0.0849,-0.0838,-0.0833,-0.0829,-0.0607,-0.0586,-0.0567,0,0,0,0,0,-0.0366,-0.0344,-0.0359,-0.0365,-0.0431,-0.0475,-0.0489,-0.0565,-0.0591,-0.0599,-0.0661,-0.0704,-0.0785,-0.081,-0.0822,-0.0727,-0.084,-0.0834,-0.0829,-0.0617,-0.059,-0.0567,0,0,0,0,0,0,-0.0307,-0.0357,-0.0376,-0.0367,-0.041,-0.0495,-0.0505,-0.0546,-0.0602,-0.0609,-0.0693,-0.0711,-0.0697,-0.0755,-0.0781,-0.0713,-0.081,-0.0806,-0.0644,-0.062,-0.06,-0.0499,-0.0852,0,0,0,0,0,-0.0282,-0.0282,-0.0338,-0.0329,-0.0344,-0.0416,-0.044,-0.0485,-0.0543,-0.0571,-0.063,-0.0674,-0.068,-0.0689,-0.0728,-0.0697,-0.0725,-0.0641,-0.062,-0.0602,-0.0529,-0.0493,-0.046,-0.0808,-0.0808,-0.0808,0,0,-0.0258,-0.0281,-0.0283,-0.0317,-0.0356,-0.0356,-0.0437,-0.0461,-0.0437,-0.0571,-0.0563,-0.0614,-0.0663,-0.0631,-0.0625,-0.0667,-0.0532,-0.0595,-0.0579,-0.0514,-0.0483,-0.0449,-0.0418,-0.0804,-0.0805,-0.0806,0,0,-0.0215,-0.0225,-0.0218,-0.024,-0.028,-0.0309,-0.0304,-0.0373,-0.0379,-0.0386,-0.0447,-0.0426,-0.0497,-0.0467,-0.0467,-0.0351,-0.0434,-0.0385,-0.0183,-0.015,-0.0119,-0.0092,-0.0135,-0.0114,-0.0364,-0.0363,-0.0363,0,-0.0184,-0.017,-0.0222,-0.0216,-0.0199,-0.0272,-0.0236,-0.0251,-0.0318,-0.0259,-0.0359,-0.0328,-0.0386,-0.0248,-0.0219,-0.0289,-0.0332,-0.0269,-0.0117,-0.0091,-0.0067,-0.0117,-0.0096,-0.0351,-0.0353,-0.0354,-0.0355,0,-0.0146,-0.0124,-0.0116,-0.0114,-0.0102,-0.0087,-0.0094,-0.0065,-0.0077,-0.0073,0.0027,-0.0048,-0.0008,-0.0021,-0.009,0.008,-0.0031,-0.0103,-0.0165,-0.0017,-0.0082,-0.0064,-0.0334,-0.0339,-0.0342,-0.0345,0,0,-0.0095,-0.0088,-0.0083,-0.0029,-0.0033,-0.0003,0.0083,0.0176,0.0286,0.0245,0.0389,0.0405,0.0384,0.0387,0.0324,0.0365,0.0456,0.0213,0.0209,0.0196,0.047,0.0369,0.0376,0.0394,0.0399,0.0404,0.0339,0,-0.0041,0.0018,0.0016,0.0125,0.0174,0.02,0.0307,0.0393,0.0434,0.0536,0.057,0.0624,0.0533,0.0542,0.0596,0.046,0.0521,0.0477,0.0309,0.0305,0.0221,0.0403,0.0373,0.0314,0.0355,0.0358,0.036,0,-0.0001,0.0051,0.0152,0.031,0.0343,0.041,0.0631,0.0706,0.0851,0.0883,0.0986,0.094,0.1021,0.0882,0.0861,0.0817,0.0712,0.0612,0.0604,0.0467,0.0243,0.018,0.0343,0.0218,0.0386,0.0383,0.0382,0,0.0075,0.0171,0.0281,0.0312,0.0449,0.0568,0.0669,0.0832,0.0939,0.1086,0.1125,0.1224,0.1189,0.1147,0.0931,0.0891,0.0849,0.0749,0.0594,0.0578,0.051,0.0482,0.0572,0.0824,0.0824,0.0825,0.0825,0,0.0145,0.0242,0.0329,0.0389,0.0603,0.0669,0.0898,0.1015,0.1154,0.1269,0.1293,0.1341,0.1247,0.1176,0.103,0.0853,0.0929,0.0702,0.0607,0.0576,0.0556,0.0402,0.0349,0.0822,0.0823,0.0823,0.0824,0,0.021,0.0238,0.0396,0.0564,0.0628,0.0791,0.0992,0.1129,0.1237,0.1364,0.139,0.1411,0.1301,0.1188,0.1048,0.0923,0.072,0.0717,0.065,0.0553,0.0295,0.0255,0.028,0.0253,0.0565,0.0563,0.0561,0,0.025,0.0318,0.0511,0.0603,0.0682,0.0886,0.1007,0.1166,0.1259,0.1377,0.1409,0.137,0.1323,0.11,0.0907,0.0707,0.0632,0.0547,0.0529,0.0361,0.0244,0.0217,0.0192,0.0484,0.0482,0.048,0.0478,0,0.0364,0.0417,0.0542,0.069,0.0826,0.0984,0.1137,0.1214,0.1344,0.1409,0.1421,0.1396,0.1208,0.1004,0.0764,0.0619,0.0482,0.05,0.0387,0.0294,0.0219,0.0114,0.0375,0.0462,0.0464,0.0465,0.0466,0.0467,0.0458,0.0553,0.0659,0.0808,0.0931,0.1019,0.1116,0.1205,0.1309,0.1359,0.1372,0.1315,0.1092,0.0762,0.0589,0.0264,0.0326,0.0159,0.0144,0.0145,0.0112,0.0314,0.0252,0.0253,0.0253,0.0253,0.0254,0,0.0556,0.0619,0.0754,0.0892,0.0964,0.1026,0.1146,0.1183,0.122,0.1278,0.1277,0.1113,0.0831,0.0568,0.0171,-0.0043,-0.0075,-0.0155,-0.0164,-0.0155,0.0069,0.0056,-0.0123,-0.0123,-0.0123,-0.0122,-0.0122,-0.0122,0.0611,0.0714,0.0745,0.0851,0.0921,0.0981,0.1018,0.106,0.1107,0.1096,0.1058,0.1046,0.0842,0.021,-0.0234,-0.0326,-0.0419,-0.0464,-0.0488,-0.0341,-0.0312,-0.0285,-0.0307,-0.0559,-0.0559,-0.0695,-0.0696,-0.0698]}],[{"header":{"parameterUnit":"m.s-1","parameterCategory":2,"la1":30.2991,"la2":30.254,"lo1":-89.0895,"lo2":-89.0444,"dy":0.0017,"dx":0.0017,"nx":28,"ny":28,"refTime":"2026-02-06T09:00:00:Z","depth":"2","parameterNumber":2,"parameterNumberName":"U-component_of_CURRENTS"},"data":[0,0,0,0,0,0,0,0,0,0,0,0,0,0,0,0,0,0,0,0,0,0,0,0,0,0,0,0,0,0,0,0,0,0,0,0,0,0,0,0,0,0,0,0,0,0,0,0,0,0,0,0,0,0,0,0,0,0,0.143,0.143,0,0.1498,0.1499,0.1499,0.1562,0.1563,0.1564,0.1565,0.1567,0.1566,0.1565,0,0,0,0,0,0,0,0,0,0,0,0,0,0.1349,0.1349,0.1429,0.1431,0.1432,0.1498,0.1499,0.1499,0.1562,0.1563,0.1565,0.1566,0.1567,0.1566,0.1565,0,0,0,0,0,0,0,0,0,0,0,0,0,0.1394,0.135,0.1429,0.1473,0.1478,0.1498,0.1499,0.15,0.1562,0.1563,0.1565,0.1566,0.1567,0.1566,0.1565,0.1526,0,0,0.1561,0.156,0,0,0,0,0,0,0,0,0.1392,0.1397,0.1465,0.147,0.1476,0.1526,0.1471,0.1506,0.1561,0.1527,0.1565,0.1567,0.1547,0.1548,0.1554,0.1526,0.1526,0.156,0.156,0.1559,0.1559,0,0,0,0,0,0,0,0.1388,0.1394,0.1454,0.1467,0.1473,0.1488,0.1496,0.1478,0.1524,0.153,0.1536,0.1547,0.155,0.1556,0.1555,0.1526,0.156,0.1559,0.1558,0.1558,0.1572,0.1573,0,0,0,0,0,0,0.1384,0.1391,0.1452,0.1456,0.144,0.1488,0.1497,0.1506,0.1526,0.1532,0.1546,0.155,0.1557,0.1556,0.1555,0.1614,0.1559,0.1558,0.1557,0.157,0.1572,0.1573,0,0,0,0,0,0,0.1382,0.1389,0.1449,0.1428,0.1437,0.1489,0.1497,0.1506,0.1523,0.1539,0.1544,0.1555,0.1558,0.1557,0.1552,0.1611,0.1557,0.1556,0.1569,0.1571,0.1572,0.1665,0,0,0,0,0,0,0.1379,0.1387,0.139,0.1427,0.1438,0.1463,0.1497,0.1507,0.1528,0.1534,0.1548,0.155,0.1559,0.1554,0.1551,0.1608,0.1555,0.1567,0.157,0.1572,0.1661,0.167,0.1678,0,0,0,0,0,0.1376,0.1377,0.139,0.1397,0.1441,0.1463,0.1469,0.151,0.1527,0.153,0.1545,0.155,0.1568,0.1553,0.1549,0.1607,0.1566,0.1569,0.1572,0.1657,0.1668,0.1678,0,0,0,0,0,0,0.135,0.1384,0.1399,0.1413,0.1436,0.1475,0.1485,0.1505,0.1519,0.1526,0.154,0.1542,0.1577,0.1557,0.154,0.1617,0.1577,0.1579,0.1643,0.1653,0.1662,0.1744,0.1554,0,0,0,0,0,0.1342,0.1348,0.1385,0.1394,0.1406,0.1441,0.1455,0.148,0.15,0.151,0.1526,0.1545,0.1581,0.1586,0.1601,0.161,0.1598,0.1651,0.166,0.1667,0.1731,0.1741,0.1757,0.1582,0.1582,0.1582,0,0,0.1334,0.1355,0.1359,0.1388,0.1411,0.1444,0.1453,0.1474,0.152,0.1502,0.1554,0.1568,0.1589,0.1634,0.1647,0.1624,0.1696,0.1671,0.1678,0.1739,0.1745,0.1763,0.1778,0.1584,0.1583,0.1583,0,0,0.1328,0.1339,0.1348,0.1369,0.1402,0.1434,0.144,0.1478,0.1513,0.154,0.1576,0.1641,0.1629,0.1713,0.1741,0.1798,0.1745,0.177,0.1879,0.1886,0.1901,0.1915,0.1862,0.1871,0.177,0.1771,0.1771,0,0.1323,0.135,0.1353,0.1376,0.1418,0.1434,0.1478,0.1506,0.1543,0.1598,0.1564,0.1677,0.1702,0.1827,0.1874,0.1832,0.1777,0.1838,0.19,0.1914,0.1926,0.1869,0.1878,0.1775,0.1775,0.1774,0.1774,0,0.1334,0.1362,0.137,0.1419,0.1452,0.1485,0.1538,0.1576,0.1613,0.1665,0.177,0.1804,0.1882,0.1905,0.1917,0.2039,0.1947,0.191,0.188,0.195,0.1883,0.189,0.1782,0.1781,0.1779,0.1778,0,0,0.1324,0.1375,0.138,0.1435,0.1489,0.1531,0.1602,0.1707,0.1779,0.1822,0.1924,0.205,0.2068,0.2106,0.2122,0.2171,0.2215,0.2085,0.2083,0.2044,0.2158,0.1964,0.1951,0.2151,0.2154,0.2157,0.2053,0,0.135,0.1416,0.1437,0.1532,0.1588,0.1641,0.1712,0.1801,0.1859,0.194,0.2036,0.2106,0.2133,0.2154,0.2223,0.2213,0.2245,0.2244,0.2089,0.2086,0.1916,0.196,0.1852,0.174,0.206,0.2061,0.2062,0,0.1363,0.1425,0.1514,0.1634,0.1664,0.1718,0.1869,0.1928,0.2041,0.2071,0.2169,0.2187,0.2313,0.2278,0.234,0.2307,0.2273,0.2259,0.2251,0.2067,0.1909,0.1733,0.174,0.2073,0.2072,0.2071,0.207,0,0.1384,0.1484,0.1576,0.1613,0.1733,0.1804,0.1873,0.1986,0.2035,0.214,0.2156,0.2274,0.2287,0.231,0.2289,0.2291,0.2289,0.2264,0.2067,0.2048,0.1937,0.1903,0.2324,0.2324,0.2325,0.2325,0.2325,0,0.1413,0.1492,0.1596,0.1649,0.1774,0.184,0.1946,0.2025,0.2089,0.2142,0.2212,0.2236,0.2292,0.2281,0.228,0.2167,0.226,0.2118,0.2033,0.1952,0.1923,0.2213,0.2201,0.2321,0.2322,0.2322,0.2323,0,0.1426,0.1475,0.1604,0.1744,0.1778,0.1875,0.1949,0.1996,0.2062,0.2113,0.2127,0.2186,0.2158,0.2168,0.2166,0.2101,0.2048,0.1987,0.1855,0.1758,0.1805,0.18,0.1766,0.1758,0.1752,0.1747,0.1743,0,0.1454,0.1513,0.1662,0.17,0.1764,0.1866,0.1893,0.1973,0.1995,0.2073,0.208,0.2075,0.202,0.1908,0.1826,0.1717,0.1874,0.1549,0.1589,0.184,0.176,0.1764,0.1767,0.1453,0.1446,0.1441,0.1437,0,0.1543,0.158,0.167,0.1716,0.1765,0.1814,0.1863,0.1868,0.1937,0.1937,0.192,0.1873,0.1764,0.1589,0.1436,0.1384,0.1557,0.1433,0.1753,0.1592,0.1531,0.1457,0.1473,0.1391,0.1396,0.1399,0.1402,0.1404,0.1609,0.1663,0.171,0.1746,0.1764,0.1738,0.1728,0.1731,0.171,0.1642,0.1666,0.1527,0.1479,0.116,0.1105,0.1089,0.1167,0.1159,0.1182,0.1209,0.1173,0.1103,0.0873,0.0875,0.0876,0.0877,0.0878,0,0.1665,0.1681,0.1713,0.1715,0.1652,0.1681,0.1668,0.1591,0.1498,0.1429,0.1291,0.1081,0.0901,0.095,0.0826,0.0742,0.0823,0.0762,0.0911,0.095,0.0987,0.0951,0.0587,0.0587,0.0587,0.0587,0,0,0.1693,0.1705,0.1677,0.158,0.1544,0.1428,0.139,0.13,0.1238,0.104,0.0933,0.0753,0.0856,0.07,0.0652,0.064,0.0813,0.0616,0.0835,0.1048,0.1087,0.1176,0.1155,0,0,0,0,0]},{"header":{"parameterUnit":"m.s-1","parameterCategory":2,"la1":30.2991,"la2":30.254,"lo1":-89.0895,"lo2":-89.0444,"dy":0.0017,"dx":0.0017,"nx":28,"ny":28,"refTime":"2026-02-06T09:00:00:Z","depth":"2","parameterNumber":3,"parameterNumberName":"V-component_of_CURRENTS"},"data":[0,0,0,0,0,0,0,0,0,0,0,0,0,0,0,0,0,0,0,0,0,0,0,0,0,0,0,0,0,0,0,0,0,0,0,0,0,0,0,0,0,0,0,0,0,0,0,0,0,0,0,0,0,0,0,0,0,0,0.0018,0.0017,0,-0.0082,-0.0083,-0.0085,-0.0148,-0.0148,-0.0149,-0.0149,-0.0194,-0.0195,-0.0196,0,0,0,0,0,0,0,0,0,0,0,0,0,0.0085,0.0085,0.0019,0.0017,0.0016,-0.0082,-0.0083,-0.0085,-0.0148,-0.0148,-0.0149,-0.0149,-0.0193,-0.0194,-0.0196,0,0,0,0,0,0,0,0,0,0,0,0,0,0.0027,0.0085,0.0019,-0.0026,-0.0031,-0.0082,-0.0084,-0.0085,-0.0148,-0.0149,-0.0149,-0.0149,-0.0193,-0.0194,-0.0196,-0.0198,0,0,-0.02,-0.0201,0,0,0,0,0,0,0,0,0.003,0.0024,-0.0018,-0.0023,-0.0029,-0.0102,-0.0076,-0.012,-0.0148,-0.0105,-0.0149,-0.0149,-0.0156,-0.0161,-0.0182,-0.02,-0.0202,-0.02,-0.0201,-0.0202,-0.0202,0,0,0,0,0,0,0,0.0034,0.0028,-0.0023,-0.0019,-0.0026,-0.0065,-0.0073,-0.0086,-0.0128,-0.0109,-0.0113,-0.0122,-0.0159,-0.0181,-0.0183,-0.0202,-0.02,-0.0202,-0.0203,-0.0203,-0.0222,-0.0222,0,0,0,0,0,0,0.0054,0.0032,-0.002,-0.0026,0.0002,-0.0066,-0.0075,-0.0079,-0.0129,-0.0137,-0.0122,-0.0125,-0.0178,-0.0182,-0.0185,-0.0147,-0.0202,-0.0203,-0.0204,-0.0222,-0.0222,-0.0222,0,0,0,0,0,0,0.0056,0.005,-0.0016,0.0001,-0.0009,-0.0066,-0.007,-0.0081,-0.01,-0.0139,-0.0146,-0.013,-0.0178,-0.0183,-0.0205,-0.0151,-0.0204,-0.0205,-0.0223,-0.0222,-0.0222,-0.0099,0,0,0,0,0,0,0.0058,0.0052,0.005,0.0003,-0.001,-0.0035,-0.007,-0.0083,-0.0105,-0.0109,-0.0148,-0.0153,-0.0179,-0.0202,-0.0206,-0.0154,-0.0206,-0.0223,-0.0223,-0.0222,-0.0104,-0.0094,-0.0087,0,0,0,0,0,0.0061,0.0058,0.005,0.0044,-0.0008,-0.0034,-0.0044,-0.0088,-0.0104,-0.0107,-0.0145,-0.0152,-0.02,-0.0204,-0.0208,-0.0155,-0.0224,-0.0223,-0.0222,-0.0107,-0.0096,-0.0087,0,0,0,0,0,0,0.0075,0.005,0.0041,0.0028,0.0007,-0.0044,-0.0059,-0.008,-0.0114,-0.0123,-0.0156,-0.0164,-0.0159,-0.0188,-0.0191,-0.0164,-0.0208,-0.0208,-0.012,-0.011,-0.0101,-0.0031,-0.0208,0,0,0,0,0,0.0083,0.0082,0.0051,0.0042,0.0034,-0.0008,-0.0026,-0.0052,-0.0086,-0.0103,-0.0131,-0.0158,-0.016,-0.0161,-0.0184,-0.017,-0.0223,-0.014,-0.0131,-0.0124,-0.0073,-0.0138,-0.013,-0.0219,-0.0219,-0.0219,0,0,0.0086,0.0072,0.007,0.0047,0.0023,0.0022,-0.002,-0.0044,-0.0028,-0.0099,-0.01,-0.0134,-0.0156,-0.0143,-0.0141,-0.0156,-0.0138,-0.0123,-0.0115,-0.0068,-0.0136,-0.0127,-0.0119,-0.0218,-0.0218,-0.0219,0,0,0.0094,0.0082,0.0085,0.0075,0.0049,0.0035,0.0037,-0.0007,-0.0008,-0.0021,-0.0054,-0.0051,-0.009,-0.0069,-0.0066,-0.0022,-0.0097,-0.0044,0.0073,0.0008,0.0016,0.0022,-0.0076,-0.0079,-0.003,-0.003,-0.003,0,0.0097,0.0104,0.008,0.0082,0.0096,0.0052,0.0075,0.0064,0.002,0.0059,-0.0009,-0.001,-0.0035,0.004,0.0055,0.001,-0.0071,0.0041,0.0022,0.0028,0.0032,-0.007,-0.0075,-0.0024,-0.0024,-0.0025,-0.0026,0,0.0109,0.0119,0.012,0.0129,0.0141,0.0146,0.0148,0.0167,0.0155,0.0154,0.0196,0.0137,0.0154,0.0142,0.0117,0.0166,0.008,0.0033,0.0006,0.0049,-0.0063,-0.007,-0.0015,-0.0017,-0.0019,-0.0021,0,0,0.012,0.0131,0.0134,0.0182,0.0175,0.0207,0.0256,0.0322,0.0386,0.0337,0.0397,0.0411,0.0378,0.0381,0.0338,0.0303,0.0248,0.0193,0.0187,0.0114,0.006,0.0074,0.0065,0.0174,0.0175,0.0175,-0.0046,0,0.0146,0.0186,0.0189,0.0271,0.0309,0.0335,0.0404,0.0462,0.0471,0.05,0.0493,0.0499,0.0467,0.0453,0.0427,0.0273,0.024,0.0311,0.0016,0.0008,0.0031,0.0064,0.0093,-0.0094,-0.0054,-0.0055,-0.0056,0,0.0165,0.0206,0.0275,0.0405,0.043,0.0481,0.0634,0.068,0.0729,0.0726,0.0741,0.0674,0.0657,0.0572,0.0409,0.0435,0.0295,0.0171,0.0157,0.0143,0.0012,-0.0125,-0.011,-0.007,-0.0069,-0.0068,-0.0067,0,0.0215,0.029,0.0371,0.0397,0.0504,0.0599,0.0678,0.0766,0.0821,0.0844,0.0819,0.0799,0.0699,0.0574,0.0352,0.0352,0.0104,0.0056,-0.0047,-0.0053,-0.0088,-0.0094,-0.003,-0.0029,-0.0029,-0.0028,-0.0028,0,0.0251,0.0328,0.0412,0.0458,0.0632,0.068,0.0835,0.0913,0.094,0.0969,0.0926,0.0868,0.0682,0.0513,0.0357,0.013,0.0106,0.0003,-0.0083,-0.0051,-0.0051,-0.0066,-0.0067,-0.0037,-0.0035,-0.0033,-0.0032,0,0.0288,0.0312,0.0444,0.0588,0.0647,0.0782,0.0922,0.0994,0.1016,0.1015,0.1001,0.0864,0.0648,0.0471,0.019,0.0099,-0.0094,-0.0161,-0.0116,-0.0186,-0.0218,-0.021,-0.0298,-0.0298,-0.0299,-0.0299,-0.03,0,0.0308,0.0362,0.0542,0.0628,0.0699,0.0867,0.0953,0.1036,0.1053,0.0997,0.0953,0.0767,0.0607,0.0242,0.0076,-0.0156,-0.017,-0.0265,-0.0193,-0.0156,-0.0234,-0.0225,-0.0217,-0.0246,-0.0246,-0.0246,-0.0246,0,0.0388,0.0442,0.0552,0.0696,0.0815,0.0942,0.1041,0.1053,0.1074,0.1029,0.0883,0.075,0.045,0.0203,-0.0046,-0.0171,-0.0206,-0.0269,-0.0277,-0.0142,-0.0114,-0.0187,-0.0181,-0.0246,-0.0246,-0.0246,-0.0246,-0.0246,0.0462,0.0552,0.0655,0.08,0.0909,0.0964,0.1031,0.1037,0.1029,0.0891,0.077,0.0567,0.0363,0.0025,-0.0128,-0.0218,-0.0231,-0.0288,-0.0286,-0.0285,-0.0198,-0.0168,-0.0298,-0.0299,-0.0299,-0.0299,-0.0299,0,0.0548,0.0618,0.0741,0.0877,0.094,0.0997,0.1042,0.102,0.0952,0.0817,0.0644,0.0404,0.0161,0.001,-0.0117,-0.0236,-0.0219,-0.0269,-0.0235,-0.0235,-0.0236,-0.0143,-0.0231,-0.0231,-0.0231,-0.0231,0,0,0.0595,0.0701,0.0738,0.0849,0.092,0.0962,0.0968,0.0923,0.0852,0.0663,0.0547,0.0292,0.0164,0.0056,-0.0094,-0.0143,-0.0152,-0.0146,-0.0193,-0.0136,-0.0134,-0.0245,-0.0103,0,0,0,0,0]}],[{"header":{"parameterUnit":"m.s-1","parameterCategory":2,"la1":30.2991,"la2":30.254,"lo1":-89.0895,"lo2":-89.0444,"dy":0.0017,"dx":0.0017,"nx":28,"ny":28,"refTime":"2026-02-06T09:00:00:Z","depth":"4","parameterNumber":2,"parameterNumberName":"U-component_of_CURRENTS"},"data":[0,0,0,0,0,0,0,0,0,0,0,0,0,0,0,0,0,0,0,0,0,0,0,0,0,0,0,0,0,0,0,0,0,0,0,0,0,0,0,0,0,0,0,0,0,0,0,0,0,0,0,0,0,0,0,0,0,0,0.0502,0.0502,0,0.0399,0.0397,0.0396,0.0369,0.037,0.0372,0.0373,0.0396,0.0395,0.0394,0,0,0,0,0,0,0,0,0,0,0,0,0,0.0549,0.0548,0.0502,0.0502,0.0501,0.0399,0.0397,0.0395,0.0369,0.037,0.0372,0.0373,0.0396,0.0395,0.0394,0,0,0,0,0,0,0,0,0,0,0,0,0,0.0489,0.0548,0.0502,0.0481,0.0478,0.04,0.0397,0.0395,0.0369,0.037,0.0372,0.0374,0.0396,0.0395,0.0394,0.0351,0,0,0.0392,0.0391,0,0,0,0,0,0,0,0,0.0493,0.0487,0.0484,0.0482,0.0479,0.0405,0.0422,0.0389,0.0368,0.0403,0.0373,0.0375,0.0414,0.0411,0.0376,0.0352,0.0353,0.0392,0.0391,0.0391,0.0391,0,0,0,0,0,0,0,0.0497,0.049,0.0454,0.0484,0.0481,0.0433,0.0427,0.0414,0.0396,0.04,0.04,0.0398,0.0412,0.0377,0.0377,0.0353,0.0392,0.0391,0.039,0.039,0.0519,0.0522,0,0,0,0,0,0,0.0528,0.0495,0.0458,0.0452,0.0498,0.0431,0.0424,0.0421,0.0393,0.0392,0.0397,0.0398,0.0377,0.0378,0.0378,0.0501,0.0391,0.039,0.0389,0.0515,0.052,0.0524,0,0,0,0,0,0,0.0529,0.0525,0.0462,0.0476,0.0466,0.043,0.0426,0.0418,0.0404,0.0391,0.0391,0.0394,0.0379,0.0379,0.043,0.0496,0.039,0.0389,0.051,0.0516,0.0522,0.0636,0,0,0,0,0,0,0.0531,0.0526,0.0539,0.0479,0.0467,0.044,0.0424,0.0415,0.0402,0.0402,0.0388,0.039,0.038,0.0432,0.0429,0.0493,0.0388,0.0505,0.0513,0.052,0.0627,0.0645,0.066,0,0,0,0,0,0.0533,0.0539,0.054,0.0537,0.0484,0.0441,0.0429,0.0405,0.0401,0.0397,0.0422,0.0392,0.0478,0.0433,0.043,0.0495,0.0502,0.0511,0.0519,0.062,0.0642,0.066,0,0,0,0,0,0,0.0559,0.0536,0.0536,0.0535,0.0507,0.044,0.0436,0.0412,0.0415,0.0441,0.042,0.0425,0.0498,0.0483,0.0434,0.0561,0.0493,0.0501,0.0571,0.0591,0.0607,0.061,0.0387,0,0,0,0,0,0.0574,0.0578,0.0543,0.0543,0.0537,0.0488,0.047,0.0459,0.045,0.0451,0.0446,0.0476,0.0523,0.0547,0.0567,0.0615,0.0521,0.0666,0.0682,0.0696,0.0701,0.0614,0.062,0.0553,0.0553,0.0553,0,0,0.058,0.0573,0.0572,0.055,0.0525,0.0499,0.048,0.0472,0.0486,0.0457,0.0491,0.052,0.0549,0.0625,0.0657,0.0625,0.0664,0.0707,0.0719,0.0716,0.0623,0.0629,0.0633,0.0559,0.0558,0.0557,0,0,0.059,0.0594,0.06,0.0578,0.0567,0.0531,0.0536,0.0498,0.0534,0.0567,0.0583,0.0653,0.0679,0.073,0.0758,0.0873,0.0749,0.0897,0.0983,0.0899,0.0901,0.0903,0.0761,0.0749,0.0911,0.0911,0.0911,0,0.0605,0.0591,0.0592,0.0585,0.058,0.0547,0.0546,0.0555,0.055,0.0615,0.0608,0.07,0.0732,0.0836,0.0915,0.0908,0.0812,0.0898,0.0913,0.0913,0.0912,0.0767,0.0752,0.0918,0.0917,0.0916,0.0916,0,0.0605,0.0592,0.059,0.0572,0.0581,0.0561,0.0589,0.0642,0.0678,0.0684,0.0806,0.084,0.0902,0.0945,0.0979,0.1036,0.095,0.093,0.0845,0.0924,0.0767,0.075,0.0927,0.0925,0.0923,0.0921,0,0,0.0625,0.0593,0.0593,0.0607,0.0575,0.0597,0.0671,0.0732,0.0793,0.0836,0.0893,0.1042,0.1053,0.109,0.1124,0.1094,0.1031,0.1039,0.1031,0.0867,0.0787,0.0832,0.0814,0.0997,0.0996,0.0995,0.0665,0,0.0612,0.0605,0.0601,0.0609,0.0607,0.0655,0.0719,0.0807,0.0857,0.0896,0.099,0.1032,0.1105,0.1144,0.1138,0.1042,0.0996,0.1119,0.0763,0.0752,0.0756,0.0802,0.0991,0.0651,0.0646,0.0643,0.0641,0,0.0606,0.0606,0.0616,0.0672,0.0688,0.0709,0.0854,0.0909,0.0987,0.1039,0.11,0.109,0.1123,0.1131,0.1,0.1066,0.0968,0.0873,0.0856,0.0849,0.0767,0.0566,0.0607,0.0609,0.0612,0.0614,0.0616,0,0.0621,0.0632,0.0657,0.0655,0.0698,0.0807,0.0865,0.0974,0.1035,0.1099,0.1073,0.1101,0.1054,0.0969,0.0852,0.0905,0.0604,0.0626,0.0558,0.0554,0.055,0.0553,0.0515,0.0516,0.0516,0.0517,0.0518,0,0.0586,0.0606,0.0686,0.0673,0.0793,0.0861,0.0967,0.1058,0.1093,0.1067,0.1132,0.1039,0.1009,0.0848,0.0774,0.0597,0.0534,0.057,0.0494,0.0606,0.0618,0.0533,0.054,0.0505,0.0508,0.051,0.0512,0,0.0548,0.0579,0.0605,0.07,0.0773,0.0876,0.0995,0.1034,0.1092,0.1031,0.1032,0.0945,0.0772,0.0696,0.0477,0.0467,0.0307,0.0259,0.0324,0.0254,0.0319,0.0336,0.0147,0.0147,0.0146,0.0146,0.0145,0,0.0502,0.0496,0.0609,0.0685,0.0728,0.0881,0.095,0.1046,0.1013,0.092,0.082,0.0692,0.0631,0.0324,0.0289,0.0148,0.0182,0.0083,0.0321,0.0348,0.029,0.0308,0.0326,0.0144,0.0144,0.0144,0.0144,0,0.0394,0.0436,0.049,0.0598,0.0707,0.0794,0.0865,0.0822,0.0834,0.0863,0.0642,0.0567,0.0362,0.0265,0.0189,0.0087,0.0154,0.0078,0.0082,0.0305,0.0341,0.0289,0.0307,0.0142,0.0142,0.0142,0.0142,0,0.033,0.0356,0.0421,0.053,0.0657,0.0664,0.072,0.0671,0.0668,0.0573,0.0449,0.0336,0.0282,0.0216,0.0086,0.0076,0.0125,0.0151,0.0153,0.0154,0.0337,0.0396,0.0141,0,0,0,0,0,0.0274,0.0286,0.0346,0.0447,0.0542,0.0598,0.0635,0.0651,0.0608,0.0462,0.049,0.0325,0.0229,0.0142,0.0141,0.0098,0.0114,0.0096,0.0145,0.0131,0.0133,0.0363,0,0,0,0,0,0,0.0233,0.0297,0.0303,0.0344,0.0386,0.0448,0.0464,0.0438,0.0369,0.0346,0.0288,0.0331,0.023,0.0231,0.0134,0.0127,0.0161,0.0074,0.0075,0.0129,0.0131,0.0133,0.0371,0,0,0,0,0]},{"header":{"parameterUnit":"m.s-1","parameterCategory":2,"la1":30.2991,"la2":30.254,"lo1":-89.0895,"lo2":-89.0444,"dy":0.0017,"dx":0.0017,"nx":28,"ny":28,"refTime":"2026-02-06T09:00:00:Z","depth":"4","parameterNumber":3,"parameterNumberName":"V-component_of_CURRENTS"},"data":[0,0,0,0,0,0,0,0,0,0,0,0,0,0,0,0,0,0,0,0,0,0,0,0,0,0,0,0,0,0,0,0,0,0,0,0,0,0,0,0,0,0,0,0,0,0,0,0,0,0,0,0,0,0,0,0,0,0,0.0307,0.0307,0,0.0379,0.038,0.038,0.0489,0.0491,0.0493,0.0494,0.0591,0.0591,0.0592,0,0,0,0,0,0,0,0,0,0,0,0,0,0.0256,0.0256,0.0307,0.0308,0.0308,0.0379,0.038,0.0381,0.0489,0.0491,0.0493,0.0495,0.059,0.0591,0.0592,0,0,0,0,0,0,0,0,0,0,0,0,0,0.0298,0.0256,0.0306,0.0371,0.0377,0.0378,0.038,0.0381,0.0488,0.0491,0.0494,0.0496,0.059,0.0591,0.0592,0.0543,0,0,0.0596,0.0597,0,0,0,0,0,0,0,0,0.0295,0.03,0.036,0.0366,0.0373,0.0428,0.0397,0.0436,0.0487,0.0446,0.0495,0.0498,0.0536,0.0542,0.0549,0.0547,0.0551,0.0596,0.0597,0.0597,0.0598,0,0,0,0,0,0,0,0.0292,0.0297,0.0335,0.0361,0.0369,0.0393,0.0403,0.0405,0.0475,0.045,0.0458,0.0465,0.054,0.0548,0.0552,0.0553,0.0596,0.0597,0.0598,0.0598,0.0552,0.055,0,0,0,0,0,0,0.028,0.0294,0.0333,0.0338,0.034,0.0392,0.0402,0.0407,0.0475,0.0487,0.0462,0.0469,0.0544,0.0551,0.0556,0.0535,0.0597,0.0598,0.0599,0.0554,0.0551,0.0549,0,0,0,0,0,0,0.0279,0.0283,0.033,0.0318,0.0326,0.039,0.0395,0.0407,0.0439,0.0484,0.0498,0.0484,0.0547,0.0554,0.0587,0.0539,0.0599,0.06,0.0556,0.0553,0.055,0.0471,0,0,0,0,0,0,0.0277,0.0282,0.0284,0.0317,0.0326,0.0343,0.0392,0.0407,0.0437,0.0448,0.0505,0.0516,0.0549,0.0585,0.0589,0.0541,0.0601,0.0559,0.0555,0.0551,0.0476,0.0466,0.0457,0,0,0,0,0,0.0275,0.027,0.0284,0.0289,0.0326,0.0343,0.0349,0.0405,0.0435,0.0444,0.0494,0.0516,0.0563,0.0586,0.059,0.0542,0.056,0.0556,0.0552,0.0481,0.0468,0.0457,0,0,0,0,0,0,0.025,0.0281,0.0298,0.0303,0.0324,0.0362,0.0372,0.0402,0.0444,0.0458,0.051,0.0523,0.0524,0.0544,0.0568,0.0514,0.0556,0.0552,0.05,0.0489,0.0479,0.0432,0.0602,0,0,0,0,0,0.024,0.0247,0.0276,0.0279,0.0288,0.0327,0.0342,0.0372,0.041,0.0433,0.0475,0.05,0.0498,0.0511,0.052,0.0502,0.0495,0.0465,0.0456,0.0448,0.041,0.0324,0.0303,0.0535,0.0535,0.0535,0,0,0.0231,0.0247,0.0253,0.0274,0.0295,0.0298,0.0344,0.0361,0.0362,0.0431,0.0456,0.0473,0.0487,0.0471,0.0469,0.049,0.0395,0.0442,0.0435,0.0401,0.0317,0.0295,0.0274,0.0532,0.0532,0.0533,0,0,0.0213,0.0228,0.0231,0.0242,0.0266,0.028,0.0284,0.0322,0.0343,0.0358,0.0392,0.0375,0.0415,0.0388,0.0382,0.0315,0.0347,0.0332,0.0246,0.0164,0.0143,0.0125,0.0163,0.0148,0.0327,0.0326,0.0326,0,0.0203,0.0207,0.0232,0.0234,0.0236,0.027,0.0264,0.0274,0.032,0.0306,0.0361,0.033,0.0352,0.0272,0.0261,0.0285,0.0298,0.0295,0.0149,0.013,0.0113,0.0155,0.014,0.0322,0.0323,0.0323,0.0323,0,0.019,0.0191,0.0189,0.0199,0.0201,0.0198,0.021,0.0211,0.0234,0.0233,0.0184,0.0198,0.0171,0.0166,0.0204,0.0079,0.0154,0.0148,0.0176,0.0084,0.0137,0.0122,0.0316,0.0317,0.0319,0.032,0,0,0.0175,0.0179,0.0181,0.0173,0.018,0.0177,0.0153,0.0126,0.0091,0.0101,0.0043,0.0007,0.0001,-0.001,0.0004,-0.0066,-0.0143,-0.0005,-0.0007,0.0031,-0.0231,-0.0165,-0.0172,-0.0167,-0.0171,-0.0175,-0.0116,0,0.0159,0.015,0.0152,0.0128,0.0122,0.0117,0.0088,0.006,0.0044,0.0001,-0.0054,-0.0089,-0.0062,-0.0073,-0.0153,-0.0137,-0.0197,-0.0153,-0.0147,-0.0146,-0.0082,-0.0196,-0.0191,-0.0126,-0.013,-0.0132,-0.0134,0,0.015,0.0144,0.0125,0.0085,0.0079,0.0064,0.0,-0.0021,-0.0097,-0.0111,-0.0192,-0.0203,-0.029,-0.0261,-0.034,-0.0298,-0.029,-0.0286,-0.0284,-0.0224,-0.0114,-0.0035,-0.0159,-0.0157,-0.0155,-0.0154,-0.0152,0,0.014,0.0117,0.0097,0.009,0.0057,0.0031,0.0008,-0.0057,-0.0096,-0.0183,-0.021,-0.0322,-0.0334,-0.0405,-0.0348,-0.0357,-0.04,-0.0414,-0.0354,-0.0342,-0.0376,-0.0358,-0.0535,-0.0535,-0.0535,-0.0535,-0.0536,0,0.0124,0.0105,0.0092,0.0085,0.0039,0.0021,-0.0048,-0.0083,-0.0158,-0.0202,-0.0263,-0.0295,-0.0378,-0.0383,-0.0381,-0.0368,-0.0424,-0.0403,-0.0369,-0.0394,-0.038,-0.038,-0.0363,-0.0533,-0.0534,-0.0534,-0.0534,0,0.0117,0.0112,0.0086,0.0054,0.004,0.0013,-0.0052,-0.0108,-0.0152,-0.0208,-0.0229,-0.0279,-0.0282,-0.0311,-0.0364,-0.037,-0.0387,-0.0368,-0.03,-0.0254,-0.0262,-0.025,-0.0361,-0.0359,-0.0358,-0.0357,-0.0356,0,0.0105,0.0101,0.0075,0.0059,0.0047,0.0002,-0.0035,-0.0096,-0.0131,-0.017,-0.0179,-0.0208,-0.023,-0.0229,-0.0271,-0.0289,-0.0303,-0.0287,-0.0412,-0.0313,-0.0267,-0.0257,-0.0247,-0.0353,-0.0353,-0.0352,-0.0352,0,0.009,0.0093,0.0078,0.0056,0.0027,-0.003,-0.0062,-0.0083,-0.0126,-0.0163,-0.0155,-0.0185,-0.0177,-0.0215,-0.02,-0.022,-0.0306,-0.0273,-0.0279,-0.0398,-0.0304,-0.0258,-0.025,-0.0347,-0.0348,-0.0348,-0.0348,0,0.0084,0.0065,0.0063,0.0034,0.0009,-0.0032,-0.0065,-0.0085,-0.0125,-0.0143,-0.0114,-0.013,-0.0145,-0.017,-0.0148,-0.0172,-0.0236,-0.0273,-0.0281,-0.0287,-0.0301,-0.0174,-0.0186,0,0,0,0,0,0.0081,0.0056,0.0031,-0.0002,-0.0017,-0.0052,-0.007,-0.0095,-0.0099,-0.0098,-0.0119,-0.0109,-0.0133,-0.0131,-0.0157,-0.0152,-0.0238,-0.0184,-0.0285,-0.0318,-0.0324,-0.0352,0,0,0,0,0,0,0.0066,0.0057,0.0027,-0.0006,-0.0043,-0.0089,-0.0106,-0.012,-0.0113,-0.0106,-0.0113,-0.0127,-0.0144,-0.0131,-0.0166,-0.017,-0.0239,-0.0196,-0.0197,-0.0315,-0.032,-0.0325,-0.0356,0,0,0,0,0]}]]